Temp
18 18 18 18 18 17 18 18 18 18 17 17 17 17 17 18 19 19 19 18 18 18 17 17 17 17 17 17 17 17 16 16 16 15 15 15 15 14 14 14 14 14 14 14 14 14 14 14 14 14 14 14 13 13 13 13 13 13 13 13 13 13 13 14 15 13 10 10 10 10 10 10 10 10 10 9 9 9 9 9 9 9 9 9 9
18 18 18 18 18 18 18 18 17 17 17 16 16 17 18 18 19 18 18 18 18 18 17 17 17 17 17 17 17 17 16 16 15 15 15 15 15 14 14 14 14 14 14 14 14 14 14 14 14 13 13 13 13 13 13 13 13 12 13 13 12 13 13 13 14 13 11 10 10 10 9 10 10 10 9 9 9 9 9 9 9 9 9 9 9
19 19 18 18 18 18 18 17 17 17 17 16 16 17 18 18 18 18 18 18 18 17 17 17 17 17 17 17 17 17 16 16 15 15 15 14 14 14 13 13 13 14 14 14 14 14 13 13 13 13 13 13 12 12 12 12 12 12 12 12 12 13 13 13 13 13 12 10 10 10 10 10 10 10 9 9 9 9 9 9 9 9 9 9 9
19 19 18 18 18 18 18 17 17 17 16 16 16 16 17 18 18 18 18 18 18 17 17 17 17 17 17 17 17 17 16 16 15 15 15 14 14 14 14 13 13 13 13 13 13 13 13 13 13 13 12 12 12 12 12 12 12 12 12 12 12 12 12 12 12 12 12 11 10 10 10 10 9 9 9 9 9 9 9 9 9 9 9 9 9
19 19 18 18 18 18 18 17 17 16 16 16 16 16 17 17 17 17 17 17 17 17 17 17 17 17 17 17 17 17 16 16 15 15 14 14 14 14 14 13 13 13 13 13 13 13 13 13 13 12 12 12 12 12 12 12 12 11 12 12 12 12 12 12 12 12 12 11 10 10 10 9 9 9 9 9 9 9 9 9 9 9 9 9 9
19 19 18 18 18 18 17 17 16 16 16 16 16 16 16 17 17 17 17 17 17 17 17 17 16 17 17 17 16 16 16 15 15 15 14 14 14 13 13 13 13 13 13 13 13 13 13 13 12 12 12 12 12 12 12 12 12 12 12 12 12 12 12 11 12 11 11 11 10 10 9 9 9 9 9 9 9 9 9 9 10 9 9 9 9
19 19 19 18 18 18 17 17 16 16 16 16 16 15 16 17 17 17 17 17 17 17 17 17 17 16 16 16 16 16 16 15 15 14 14 14 13 13 13 13 13 13 12 12 12 12 12 12 12 12 12 12 12 12 12 12 12 11 11 12 12 11 11 11 11 11 11 10 10 10 9 9 9 9 9 9 9 9 9 9 10 10 9 9 9
19 19 18 18 18 17 17 16 16 16 16 16 16 15 15 16 17 17 17 16 16 16 17 17 16 16 16 16 16 16 15 15 15 14 14 13 13 13 13 12 12 12 12 12 12 12 12 12 12 12 12 12 12 12 12 12 11 11 11 11 11 11 10 10 10 11 11 10 10 10 9 9 9 9 9 9 9 9 9 9 9 9 9 9 9
19 19 18 18 18 17 17 16 16 16 16 16 15 15 15 16 17 17 16 16 16 16 16 16 16 16 16 16 16 15 15 15 14 14 14 13 13 13 13 12 12 12 12 12 12 12 12 12 12 12 12 12 12 12 12 12 12 11 11 11 10 10 10 10 10 10 10 10 10 10 9 9 9 9 9 10 10 9 9 9 9 9 9 10 9
18 18 18 18 18 17 17 16 16 16 16 15 15 15 15 16 16 16 16 16 15 16 16 16 16 16 16 15 15 15 15 15 14 14 14 14 13 13 13 12 12 12 12 12 12 12 12 12 11 11 12 12 12 12 11 11 11 11 11 10 10 9 10 10 10 10 10 10 10 10 10 10 9 9 10 10 9 9 9 9 9 9 9 10 10
18 18 18 18 17 17 16 16 16 16 16 15 15 15 16 16 16 15 15 15 15 15 16 16 15 16 16 15 15 15 14 14 14 14 14 13 13 13 13 13 12 12 12 12 12 11 11 11 11 11 11 11 11 11 11 11 11 10 10 10 10 9 9 10 10 9 10 10 10 10 10 10 10 10 9 9 9 9 9 9 9 9 9 9 10
18 18 17 17 17 16 16 16 16 16 15 15 15 15 15 15 15 15 14 14 15 15 15 15 15 15 15 15 15 15 15 14 14 14 13 13 13 13 13 13 12 12 12 11 11 11 11 11 11 11 11 11 11 10 10 10 10 10 10 9 9 9 9 10 10 9 10 10 10 10 10 11 10 9 9 9 9 9 9 9 9 9 9 9 9
18 18 17 17 17 16 16 16 16 15 15 15 15 15 15 14 14 14 13 14 14 14 15 15 15 15 15 15 15 14 14 14 14 14 13 13 13 13 13 12 12 12 12 11 11 11 11 11 11 11 11 11 10 10 10 10 9 9 9 9 9 9 9 9 10 10 10 10 10 10 10 10 10 9 9 9 9 9 10 10 9 9 9 9 9
18 17 17 17 16 16 16 16 16 15 15 15 15 15 14 14 14 13 13 14 14 14 14 15 15 15 15 15 14 14 14 14 14 14 13 13 13 12 12 12 12 12 12 12 11 11 11 11 11 11 10 10 10 10 10 9 9 9 9 9 9 9 9 9 9 10 10 10 10 10 10 10 10 9 9 9 9 9 9 10 9 9 9 9 9
18 17 17 17 16 16 16 16 16 15 15 15 15 15 14 14 14 13 14 14 14 14 14 14 15 15 15 15 15 14 15 14 14 13 13 13 12 12 12 12 12 12 12 12 12 11 11 11 11 11 10 10 10 10 10 9 9 9 9 9 9 9 9 9 9 9 10 9 9 9 9 9 9 9 9 9 9 9 9 9 9 9 9 9 9
17 17 17 17 16 16 16 16 16 16 15 15 15 14 14 14 14 13 13 13 13 14 14 14 15 15 15 15 15 14 15 14 14 13 13 13 12 12 12 12 11 11 11 11 11 11 11 11 11 11 10 10 10 10 10 9 9 9 8 9 9 9 9 9 9 9 9 9 9 9 9 9 9 9 9 9 9 9 9 9 9 9 9 9 10
17 17 17 17 16 16 16 16 16 16 15 15 14 14 14 14 14 13 13 13 12 13 13 14 15 15 15 15 15 14 15 14 14 13 13 12 12 11 11 11 11 11 11 11 11 11 11 11 11 11 10 10 10 10 10 9 9 9 8 9 9 9 9 9 9 9 9 9 9 9 9 9 9 9 9 9 9 9 9 9 9 9 9 10 11
17 17 17 17 16 16 16 16 16 15 15 15 14 14 14 14 13 13 13 13 13 13 13 14 15 16 16 16 15 15 15 15 14 13 13 12 12 12 11 11 10 11 11 11 11 11 11 11 11 10 10 10 10 10 10 9 9 8 8 9 9 8 9 9 9 9 9 9 9 9 9 9 9 9 9 9 9 9 9 9 10 10 10 11 11
17 17 17 17 16 16 16 16 16 15 15 15 14 14 14 14 14 13 13 13 13 13 13 14 15 15 15 16 16 16 15 15 14 13 13 12 12 12 11 11 10 11 11 10 11 10 10 10 10 10 10 10 10 10 10 9 9 8 9 8 8 8 9 9 9 9 9 9 9 9 9 9 9 9 9 9 9 9 9 9 9 9 10 10 10
17 17 17 17 16 16 16 16 15 15 15 15 14 14 14 14 13 13 13 14 13 13 13 14 15 15 15 16 16 16 15 15 14 13 13 13 12 12 11 11 11 10 10 10 11 10 10 10 10 10 10 10 10 10 9 9 9 9 9 8 8 9 9 9 9 9 9 9 9 9 9 9 9 9 9 9 9 9 10 9 9 9 9 10 10
17 17 17 17 16 16 16 16 16 15 15 15 14 14 14 14 14 13 13 13 13 13 13 14 14 14 15 15 15 15 15 15 14 13 13 13 12 12 11 11 11 11 11 11 11 11 11 10 10 10 10 10 10 10 9 9 9 9 9 9 9 10 9 9 9 9 9 9 9 9 8 9 9 9 9 9 9 9 9 9 9 9 9 9 10
17 17 17 16 16 16 16 16 16 16 15 15 14 14 14 14 14 14 13 13 13 13 13 13 13 13 13 14 15 15 14 14 14 14 13 13 12 12 12 12 12 12 11 11 11 11 11 11 11 11 11 10 10 10 10 9 9 9 9 10 10 10 9 9 9 9 9 9 8 8 8 8 9 9 9 9 9 9 9 9 9 9 9 9 9
17 17 16 16 16 16 16 15 16 16 15 15 14 14 14 14 14 13 13 12 12 12 12 12 11 11 11 11 12 13 13 13 13 14 13 13 12 12 12 12 12 12 11 11 11 11 11 11 11 11 11 10 10 10 10 9 9 9 9 10 9 9 9 9 9 9 8 8 8 8 8 9 9 9 9 9 9 9 9 9 9 9 9 9 9
17 16 16 16 16 16 16 15 15 15 15 15 14 14 13 13 13 13 12 12 12 12 11 11 11 11 10 9 10 11 11 12 13 14 14 13 12 12 12 12 12 12 12 12 12 12 12 12 12 11 11 11 10 10 10 10 9 9 9 9 9 9 8 8 8 8 8 8 8 8 9 9 9 9 9 9 9 9 9 9 9 9 9 9 9
16 16 15 15 15 15 15 15 15 15 15 14 14 14 13 13 13 12 12 12 12 12 12 12 11 11 10 9 10 11 11 11 12 13 13 13 13 12 12 12 12 12 12 12 12 12 12 12 11 11 11 11 10 10 10 10 9 9 9 9 9 9 8 8 8 8 8 8 8 9 9 9 9 9 9 9 9 9 9 9 9 9 9 9 9
15 15 15 15 15 15 14 14 14 14 14 14 14 14 13 12 12 12 12 12 12 12 12 11 11 11 10 10 11 11 11 11 12 12 12 12 12 12 12 11 11 11 12 12 12 12 12 11 11 11 11 11 10 10 9 10 10 9 9 9 9 9 9 8 8 8 8 8 8 8 9 9 8 8 9 9 9 9 9 9 9 9 9 9 9
15 15 15 15 15 15 15 14 14 14 14 14 14 13 13 13 12 12 11 12 12 12 11 11 11 10 10 10 10 10 10 10 11 11 11 11 11 11 11 11 10 10 10 11 11 11 11 11 10 10 10 10 10 9 9 9 9 9 9 9 9 9 9 9 8 8 8 8 8 9 9 8 8 8 8 8 9 9 9 9 9 9 9 9 9
15 15 15 15 15 15 15 14 14 14 14 14 13 13 13 13 13 12 12 12 12 11 11 11 11 10 10 10 9 9 8 9 10 11 12 12 12 11 11 10 10 10 10 10 11 10 10 10 9 9 9 9 9 8 8 9 9 9 9 9 9 9 9 8 8 8 8 8 8 8 8 8 8 8 8 8 8 9 9 9 9 9 9 9 9
15 15 14 14 14 14 14 14 14 13 13 13 13 13 13 13 13 12 13 13 13 13 13 12 11 11 11 11 10 9 8 9 11 12 13 13 13 12 12 11 12 11 11 11 10 9 9 8 8 8 8 8 8 8 8 8 9 9 9 8 8 8 8 8 7 8 8 8 8 8 8 8 9 8 8 8 8 8 9 9 9 9 9 9 9
15 15 14 14 14 14 14 13 13 13 13 12 12 12 12 12 13 13 13 12 13 14 14 14 13 13 13 13 13 13 12 13 13 12 12 12 13 12 13 13 13 12 11 11 9 9 8 8 8 8 8 8 8 8 8 8 8 8 8 8 8 8 8 7 7 8 8 8 8 8 8 8 9 8 8 8 8 8 9 9 9 9 9 9 10
14 14 14 14 14 13 13 13 13 13 12 12 11 11 11 11 12 12 12 12 12 12 13 14 14 15 14 14 14 13 14 14 13 12 12 12 12 12 12 12 12 12 11 10 8 8 8 8 8 9 8 8 8 8 8 8 8 8 8 8 8 8 8 8 8 8 8 8 8 8 8 8 8 8 8 8 8 8 8 8 8 8 8 9 10
14 14 14 14 13 13 13 13 13 12 12 11 11 10 10 10 10 10 11 11 11 12 12 13 13 14 14 14 13 13 13 13 13 12 12 12 11 11 11 11 11 11 10 9 8 8 8 8 8 9 8 8 8 8 8 8 8 8 8 8 8 8 8 8 8 8 8 8 8 8 7 8 8 8 8 8 8 8 8 8 8 8 8 8 9
14 14 14 13 13 13 13 13 12 12 11 11 10 10 10 10 9 9 9 10 10 11 12 12 13 13 13 13 13 13 13 13 12 12 12 11 11 11 11 10 10 10 9 8 8 8 8 8 8 8 8 8 8 8 8 8 8 8 8 8 8 8 8 8 8 8 8 8 8 8 8 8 8 8 8 8 8 8 8 8 8 8 7 8 9
14 14 14 13 12 12 12 12 12 11 11 11 10 10 10 10 9 9 8 9 9 10 10 11 11 12 12 12 12 12 13 12 12 11 11 11 11 10 10 9 8 8 8 7 7 8 8 8 8 8 8 8 8 8 8 8 8 7 7 7 8 8 7 8 8 8 8 8 8 8 8 8 8 8 8 8 8 8 8 8 8 8 8 8 9
14 14 13 13 12 12 12 12 11 11 11 11 11 10 10 10 10 9 9 9 9 8 9 9 10 10 11 11 11 11 11 11 11 11 11 10 10 9 8 7 6 6 6 7 7 7 7 7 7 8 8 8 8 8 7 7 7 7 7 7 7 7 7 7 7 7 7 7 8 8 8 8 8 8 8 8 8 8 8 8 8 8 8 9 9
13 12 12 12 12 12 11 11 11 11 11 10 10 10 9 9 9 9 9 9 9 8 8 8 9 9 10 10 10 10 10 10 10 10 10 10 10 9 7 6 6 6 6 6 7 7 7 7 7 8 8 8 8 7 7 7 7 7 7 6 6 6 6 6 7 7 7 7 7 7 7 7 8 8 8 8 8 8 8 8 8 8 8 9 9
12 11 11 11 11 11 11 11 11 10 10 10 10 9 9 9 9 9 9 8 8 8 7 8 8 8 8 9 9 9 9 9 9 10 9 9 9 8 8 7 7 7 7 7 7 7 7 7 8 8 8 8 7 7 7 7 7 7 7 6 6 6 6 6 6 6 6 6 6 7 7 7 7 7 7 8 8 8 9 9 9 9 8 8 9
11 11 11 11 11 11 10 10 10 10 10 10 10 10 9 9 9 9 9 8 8 7 7 8 8 7 7 8 8 8 9 8 8 8 8 8 8 8 8 8 8 8 8 8 8 8 8 8 8 8 8 8 7 7 7 7 7 6 6 6 5 5 6 6 6 6 6 6 6 6 6 7 7 7 7 8 8 8 8 8 8 8 8 8 9
10 11 11 11 10 10 10 10 9 9 9 9 9 9 9 8 8 8 8 8 8 7 7 7 7 7 7 7 8 8 8 7 7 7 7 7 7 8 8 8 8 9 9 9 9 9 9 9 9 9 8 8 7 7 7 7 6 6 6 5 5 5 5 5 5 5 5 5 5 6 6 6 7 7 7 7 8 8 8 8 8 8 8 9 9
10 10 10 10 10 10 10 9 9 9 9 9 8 8 9 9 8 8 8 8 8 8 8 8 7 7 8 8 9 8 8 7 7 7 7 7 7 8 8 8 8 9 9 9 9 9 9 9 9 9 8 8 8 8 7 7 7 6 6 5 5 5 5 5 5 5 5 5 5 6 6 6 6 7 7 7 7 8 8 8 8 8 8 9 9
9 9 9 10 10 9 9 9 9 9 9 9 9 9 9 9 9 9 9 9 8 8 8 8 8 8 8 9 10 9 9 8 8 8 8 8 8 8 8 8 9 9 9 9 9 9 9 9 9 9 8 8 8 8 7 7 7 7 6 5 5 5 5 5 5 5 5 5 5 6 6 6 6 7 7 7 7 7 8 8 8 8 8 9 9
9 9 9 9 9 9 9 8 9 9 9 9 9 9 9 9 9 9 9 9 8 8 8 8 8 8 8 9 9 8 8 8 8 8 8 8 8 9 9 9 9 9 9 9 9 9 9 9 9 8 8 8 8 7 7 7 7 7 6 6 5 5 5 5 5 5 5 5 5 6 6 6 6 6 7 7 7 7 7 8 8 8 8 9 9
9 9 9 9 9 9 9 8 8 8 8 8 8 9 9 9 9 9 9 8 8 8 8 7 7 8 8 8 8 7 7 8 8 8 8 8 9 9 9 9 9 9 9 9 9 9 9 8 8 8 8 8 8 7 7 7 7 7 6 6 6 6 6 5 5 5 5 5 5 6 6 6 6 6 6 7 7 7 7 8 8 8 8 9 9
9 8 8 8 8 8 8 8 8 8 8 8 9 9 9 9 8 8 8 8 8 8 8 8 8 8 7 7 7 7 7 8 8 8 8 8 8 8 9 9 9 9 8 8 8 8 8 8 8 8 8 8 7 7 7 7 7 7 6 6 6 6 6 6 6 6 6 6 6 6 6 6 6 6 6 7 7 7 8 8 8 8 8 8 8
8 8 8 8 8 7 7 7 8 8 9 9 9 9 9 9 9 8 8 8 9 9 9 9 9 8 8 7 7 7 7 8 8 8 8 8 8 8 8 8 8 8 8 8 8 8 7 7 7 8 8 7 7 7 7 7 7 7 6 6 6 6 6 6 6 6 6 6 6 6 6 6 6 6 7 7 7 8 8 8 8 8 8 8 8
8 8 8 8 7 7 7 7 8 9 9 9 9 9 9 9 9 9 9 9 9 9 9 9 9 8 8 8 8 8 7 8 8 8 8 8 8 8 8 8 8 8 7 7 7 7 7 8 8 8 7 7 7 7 7 7 7 7 6 6 6 6 6 6 6 6 6 6 6 6 6 6 6 6 7 7 7 8 8 8 8 8 8 8 8
10 9 8 8 8 8 8 8 8 9 9 9 9 9 9 9 9 9 9 9 9 9 9 9 8 8 8 8 8 8 8 8 8 8 8 8 8 8 8 7 7 7 7 7 8 8 8 8 8 8 7 7 7 7 7 7 7 7 6 6 6 6 6 6 6 6 6 6 6 6 6 6 6 6 7 7 7 8 8 8 8 8 8 8 8
10 9 9 9 8 8 8 8 9 9 9 9 9 9 9 9 9 9 9 10 9 9 9 8 8 8 8 8 8 8 7 7 7 7 7 8 8 8 8 8 8 8 8 8 8 8 8 8 8 8 7 7 7 7 7 7 7 7 7 6 6 6 6 6 6 6 6 6 6 6 7 7 7 7 7 7 7 8 8 8 8 8 8 8 7
10 10 9 9 9 9 9 9 9 9 9 9 9 9 9 9 9 9 9 9 9 9 9 8 8 8 8 8 8 8 7 7 7 7 7 8 8 8 8 8 8 8 8 8 8 8 8 8 8 8 7 7 7 7 7 7 7 7 7 7 7 7 6 6 6 6 6 6 6 6 7 7 7 7 7 7 7 7 7 7 7 7 7 7 7
10 10 10 10 9 9 9 9 9 9 9 9 9 8 8 8 8 8 8 9 9 8 8 8 8 8 8 8 8 8 8 8 8 8 8 8 8 8 8 8 8 8 8 8 8 8 8 8 8 8 7 7 7 7 7 7 7 7 7 7 7 7 6 6 6 6 6 6 6 7 7 7 7 7 7 7 7 7 7 7 7 7 7 6 7
10 10 10 10 10 9 9 9 9 9 9 9 9 8 8 8 8 8 8 9 9 8 8 8 8 8 8 8 8 8 8 8 8 8 8 8 8 8 8 8 8 8 8 8 8 8 8 8 8 8 7 7 7 7 7 7 7 7 7 7 7 7 7 6 6 6 6 6 6 7 7 7 7 7 7 7 7 7 7 7 7 7 7 6 6
Height
728 731 735 739 742 746 750 755 759 763 765 768 772 775 777 779 782 785 788 791 793 796 798 801 803 805 807 809 811 813 815 816 818 820 821 822 823 825 826 827 828 829 830 831 833 834 835 836 837 837 839 840 841 841 842 843 843 844 845 846 847 848 850 851 851 853 856 857 858 859 859 860 860 860 859 858 857 856 855 854 853 852 851 850 851
724 728 732 736 739 743 748 752 756 760 762 765 769 772 774 777 780 783 786 789 791 794 796 799 801 803 805 808 809 811 813 814 816 818 820 821 822 823 824 825 827 828 829 830 832 833 834 835 836 837 838 839 840 841 842 842 843 844 845 845 847 847 849 850 850 852 854 856 857 858 858 858 858 857 857 856 855 854 854 853 852 851 850 849 850
720 725 729 733 736 740 745 749 753 756 759 762 765 768 771 774 778 781 784 787 789 792 794 797 799 801 804 806 807 809 811 812 814 816 818 819 820 821 823 824 825 826 828 829 830 832 833 834 835 836 837 838 839 840 841 842 843 844 844 845 846 846 847 848 849 850 852 853 855 855 856 856 856 856 856 856 855 853 853 853 852 851 849 848 849
717 722 726 730 734 738 742 745 749 753 756 759 762 766 769 772 776 779 782 785 787 790 792 795 797 800 802 804 805 807 809 810 813 815 816 818 819 820 822 823 824 826 827 828 829 831 832 833 834 835 836 838 839 840 841 842 843 844 844 845 845 845 846 847 848 849 850 852 853 854 854 855 856 856 856 856 855 853 853 853 852 851 849 848 848
714 718 722 727 731 735 739 742 745 749 752 756 760 763 766 770 773 777 780 783 786 788 790 793 796 798 800 802 804 805 807 809 811 813 815 816 818 819 821 822 824 825 826 827 829 830 832 833 833 834 836 837 838 839 840 841 842 843 844 844 844 845 845 846 847 847 849 850 852 853 854 855 855 856 856 856 855 854 853 853 852 850 849 848 848
711 715 719 723 728 732 735 738 741 745 749 753 757 761 764 767 771 774 778 781 783 786 788 790 793 796 798 800 802 804 805 807 809 811 813 815 817 819 820 822 823 824 825 827 829 830 831 832 833 834 835 837 838 839 840 841 842 842 843 843 844 844 845 846 846 846 848 849 850 852 853 854 855 855 855 855 854 854 853 852 851 850 849 848 848
708 712 716 720 724 728 731 734 737 741 746 751 755 758 761 765 769 772 775 778 781 783 786 788 791 793 796 798 800 802 803 805 808 810 812 813 816 818 819 821 822 823 825 826 828 829 830 831 832 833 835 836 837 838 839 840 841 841 842 843 843 843 844 846 846 846 848 849 850 852 853 853 854 854 854 854 854 853 853 852 850 849 848 848 847
705 709 713 716 720 724 727 731 735 739 744 748 752 756 759 762 766 770 773 776 778 780 783 786 788 791 794 796 798 800 802 804 806 808 810 812 814 816 818 819 821 822 823 825 827 828 830 830 832 833 834 836 837 837 838 839 840 841 842 842 843 843 844 845 846 846 848 849 850 851 852 853 853 853 853 853 853 852 852 851 850 848 848 847 847
701 706 709 712 716 720 725 729 733 736 740 745 749 753 757 760 763 767 770 773 776 778 781 783 786 788 791 794 796 798 799 801 804 806 808 810 812 814 816 818 819 821 822 824 826 827 829 830 831 832 834 835 836 837 838 839 840 841 841 842 843 844 844 845 845 846 847 848 850 850 851 852 852 852 852 852 851 851 850 850 849 848 847 846 846
699 703 707 709 714 718 723 726 729 733 737 742 746 750 754 757 761 764 768 771 773 776 778 781 783 786 789 791 793 795 797 799 802 804 806 808 810 812 814 816 818 819 821 823 825 826 828 829 830 832 833 834 835 836 837 838 839 840 841 842 843 844 844 845 845 846 847 848 849 849 850 851 851 851 851 850 850 850 849 849 848 847 846 845 845
696 700 703 707 712 716 719 723 726 730 734 739 743 747 751 755 758 762 765 768 770 773 776 778 781 784 786 788 791 792 795 797 800 802 804 806 808 810 812 814 816 817 819 821 823 825 827 828 829 831 832 833 834 836 837 838 839 840 840 841 842 842 843 844 844 845 846 847 847 848 849 849 849 849 850 850 849 849 849 848 847 846 845 844 844
692 697 700 705 709 712 716 721 724 728 732 736 740 744 749 752 756 760 762 765 767 771 773 775 778 781 784 786 788 790 792 795 798 800 802 804 806 808 810 811 813 815 817 819 822 824 825 827 828 829 830 832 833 834 836 837 838 839 839 840 840 841 842 843 843 844 845 845 846 847 847 847 848 848 849 849 849 848 848 847 846 846 845 844 843
688 693 697 702 705 709 713 718 721 724 728 733 738 742 746 750 754 757 760 762 765 768 770 773 776 779 781 783 786 788 790 793 796 798 800 802 804 806 808 809 811 813 815 817 820 822 823 825 826 827 829 831 832 833 834 836 837 838 838 839 839 839 840 841 842 843 844 844 845 846 846 846 847 847 848 848 848 848 847 846 846 845 844 843 843
684 689 694 698 702 706 711 714 718 722 725 730 735 738 742 747 751 754 756 759 762 765 767 770 773 776 778 781 783 785 788 790 793 795 798 800 802 804 806 808 809 811 813 815 818 820 822 823 825 826 828 830 831 832 833 835 836 837 838 838 838 839 839 840 841 842 843 844 844 845 845 845 846 846 846 846 847 846 846 846 845 844 844 843 842
682 686 690 694 699 703 707 711 715 719 722 727 731 735 739 743 747 750 753 756 759 761 764 766 769 772 775 777 780 783 785 788 790 793 795 798 800 802 804 806 808 810 812 814 816 818 820 822 823 825 826 828 830 831 832 834 835 836 837 838 838 839 839 840 841 842 842 843 843 844 844 845 845 845 845 845 845 845 845 845 844 843 843 842 841
679 683 687 692 696 699 703 708 711 715 719 724 728 732 735 739 743 747 750 753 756 758 761 763 766 769 772 775 778 780 783 785 788 791 793 796 798 801 803 805 807 808 810 812 814 816 818 820 822 824 826 827 829 830 832 833 835 836 837 837 838 839 839 840 841 841 842 842 843 843 844 844 844 844 844 844 844 844 843 843 843 842 842 841 839
676 680 684 689 693 696 700 704 708 712 716 721 725 728 732 736 741 744 747 750 753 755 758 761 764 767 769 772 775 778 780 783 786 788 791 794 796 799 801 803 805 807 808 811 813 815 817 819 821 823 825 826 828 829 831 833 834 835 836 836 837 838 839 840 841 841 842 842 842 842 843 843 843 843 843 843 843 843 842 842 842 841 840 839 837
673 677 681 685 689 693 698 702 706 709 713 718 722 726 730 734 738 741 744 747 750 753 755 758 761 764 766 769 772 775 777 780 783 786 788 791 794 796 799 801 803 805 807 809 811 813 815 817 820 822 823 825 826 828 830 832 833 834 835 836 837 837 838 840 840 841 841 841 841 841 841 842 842 842 841 841 841 841 841 841 841 840 839 838 837
670 673 677 682 686 691 696 700 703 706 710 715 720 723 727 731 735 739 742 744 747 750 753 755 758 761 764 766 769 772 774 777 780 783 786 789 791 794 796 799 801 803 805 807 809 811 813 815 817 819 821 823 825 827 828 830 831 832 833 835 836 836 837 838 839 840 840 840 840 840 840 840 840 840 839 839 839 839 839 839 840 839 839 837 836
666 670 675 680 684 689 693 697 700 704 709 714 718 722 725 729 733 736 739 742 745 747 750 753 755 758 761 764 767 769 772 775 779 781 784 787 789 792 794 796 798 801 803 805 807 809 811 813 815 817 819 821 823 825 826 828 829 830 831 833 833 834 836 837 838 838 839 838 838 838 838 838 838 838 838 838 837 837 837 838 838 838 838 837 836
664 669 673 678 683 687 691 695 699 703 708 713 718 721 724 727 730 733 737 739 742 745 747 750 753 756 759 762 764 767 770 774 777 780 782 785 787 789 792 794 796 798 800 803 805 807 809 811 812 814 816 819 821 823 824 826 827 828 829 830 831 833 834 835 836 836 837 836 836 837 837 837 837 836 836 836 836 836 836 836 836 836 836 835 835
664 668 672 676 681 685 689 694 698 702 707 712 716 719 722 725 728 731 735 737 740 742 745 748 752 754 757 759 762 765 768 772 775 778 780 783 785 787 789 791 793 796 798 801 803 805 807 809 810 812 815 817 819 821 822 824 825 826 827 828 830 831 833 834 834 835 835 835 835 835 835 835 835 835 835 835 834 834 834 834 834 834 834 834 833
664 668 672 675 679 683 688 692 696 700 705 709 713 716 720 723 726 730 733 735 738 741 744 747 750 752 755 757 761 764 767 770 773 776 778 780 782 785 787 790 792 794 796 799 801 802 805 807 809 811 813 815 817 818 820 821 823 824 825 827 829 830 831 832 832 833 833 833 834 834 834 834 833 833 833 833 833 833 833 832 832 832 832 831 831
663 668 671 674 678 682 686 689 692 697 701 706 710 714 717 721 725 729 731 733 736 739 742 746 748 751 754 757 761 764 767 769 772 773 775 778 780 783 786 788 790 792 795 797 799 801 803 805 807 809 811 812 814 816 817 819 820 822 823 825 827 828 830 830 831 831 832 832 832 832 831 832 832 831 831 831 831 831 831 831 830 830 830 829 829
661 667 673 676 679 682 684 688 692 697 700 702 706 710 714 718 723 726 729 731 734 737 741 744 746 749 753 755 757 760 763 766 769 771 773 776 779 782 785 786 788 790 793 795 798 800 802 803 805 807 808 810 812 813 815 816 818 819 821 823 825 826 827 828 829 829 829 829 829 829 829 830 830 829 829 829 829 829 829 829 829 828 828 827 827
655 660 667 674 679 684 687 691 696 700 701 702 704 708 712 716 720 723 726 729 732 734 738 741 744 747 751 752 754 755 758 762 766 769 771 775 777 780 782 784 787 789 791 794 796 798 800 802 803 805 806 808 809 811 812 814 816 817 819 821 822 824 824 825 826 826 827 827 827 827 828 828 827 827 827 827 827 827 827 827 826 826 826 825 825
652 654 660 667 675 681 684 688 693 698 700 701 704 707 710 714 717 720 723 726 729 732 735 737 740 744 748 750 752 754 757 760 763 766 768 771 774 777 780 782 784 787 789 792 794 796 798 800 802 803 805 806 808 809 810 812 813 815 816 817 819 820 821 822 824 824 824 825 825 825 826 826 825 825 825 824 824 824 824 824 824 824 824 823 822
652 654 658 662 667 671 676 681 685 691 695 698 700 703 707 710 713 715 717 720 724 727 731 734 737 740 744 747 750 754 757 758 759 762 765 767 770 773 776 779 782 784 787 790 792 795 797 798 800 802 803 805 806 807 808 809 811 812 813 814 815 817 818 820 821 821 822 822 823 823 823 823 823 823 823 822 822 822 822 822 822 822 821 821 820
649 651 655 659 662 666 671 676 681 686 690 694 698 701 703 706 708 710 713 715 718 721 724 728 732 736 739 743 746 751 754 755 756 759 762 764 767 770 773 776 779 781 784 787 790 793 795 797 799 800 801 802 803 804 805 806 808 809 810 811 813 814 815 817 818 818 819 819 820 820 821 821 821 821 820 820 820 820 819 819 819 819 819 818 818
646 647 649 652 656 660 665 670 675 680 685 690 695 699 702 704 706 708 711 715 717 719 721 725 729 732 736 739 742 746 749 751 753 757 760 763 766 768 771 774 777 780 782 786 788 791 792 794 796 797 799 800 800 801 802 804 805 806 807 808 810 811 812 813 814 815 816 816 817 817 818 818 818 818 818 818 818 817 817 817 817 816 816 816 815
645 646 646 645 646 651 658 664 670 675 680 685 691 696 700 703 707 710 713 716 718 720 722 725 728 731 734 737 741 745 748 750 753 756 758 761 764 767 770 773 776 779 781 784 787 788 790 792 793 795 796 797 798 799 800 801 802 804 804 805 806 807 809 810 811 812 812 813 814 814 815 815 816 816 816 815 815 815 814 814 814 814 813 813 813
645 648 650 649 648 648 653 660 667 673 678 683 688 693 697 701 706 711 714 717 719 721 723 725 728 731 734 737 740 744 747 750 752 754 756 759 762 765 769 772 775 777 780 783 785 786 788 789 791 792 793 794 795 796 798 799 800 801 802 803 803 804 806 807 808 809 809 810 810 811 811 812 812 813 813 812 812 812 812 811 811 811 811 811 811
645 648 651 654 656 655 655 659 666 672 678 683 688 691 695 698 703 708 714 717 720 722 723 726 728 731 734 737 740 743 746 748 751 753 755 758 761 764 768 771 773 776 778 781 783 784 785 787 788 789 790 792 793 794 795 796 797 798 799 801 802 803 804 804 805 806 806 807 807 807 808 808 809 810 810 809 809 809 809 809 809 808 808 808 808
643 647 649 653 658 660 660 661 665 671 677 683 687 690 693 696 699 703 709 715 718 721 723 726 729 731 734 737 739 742 745 747 750 752 754 757 760 763 766 769 772 775 777 778 780 781 782 784 785 787 788 789 790 791 792 793 794 795 796 798 799 801 801 802 802 803 804 805 805 805 805 806 806 807 807 807 807 807 806 806 806 806 806 806 806
640 643 645 649 653 658 661 663 666 669 675 680 685 688 692 695 697 700 704 709 714 718 722 725 729 731 733 736 738 742 744 747 749 751 753 756 758 762 765 768 771 773 775 776 777 778 780 781 783 784 785 786 787 788 790 791 792 793 794 795 796 798 798 799 799 800 801 802 802 802 803 803 804 805 805 805 805 804 804 804 804 803 803 804 804
641 643 646 648 650 655 659 663 666 670 675 679 684 689 693 696 698 701 704 708 711 716 720 724 728 731 734 736 738 741 744 747 749 750 752 754 757 760 763 765 767 770 772 773 775 776 778 780 781 782 783 784 785 786 787 788 789 790 791 792 793 795 795 796 796 797 798 799 800 800 801 801 802 802 803 803 802 802 802 801 801 801 801 802 802
641 645 649 651 653 656 660 665 668 671 675 680 685 690 696 699 700 702 705 709 712 715 719 723 727 731 734 736 738 741 744 747 748 750 753 754 756 758 760 762 765 767 769 770 772 774 776 777 779 779 780 781 782 783 784 785 786 787 788 789 790 791 792 793 793 794 795 796 797 798 798 799 800 800 800 800 800 800 800 799 799 799 799 800 800
642 646 650 653 656 659 662 667 670 673 676 681 685 690 695 700 701 703 706 710 713 715 718 722 726 730 732 735 738 741 743 746 748 750 752 754 755 757 758 760 763 765 767 769 771 772 774 775 776 777 778 779 780 781 781 782 783 784 785 786 787 788 789 790 791 791 792 793 794 795 795 796 797 798 798 798 798 798 798 797 797 797 797 798 798
643 647 650 653 656 660 663 667 672 675 678 682 687 690 694 698 701 703 707 711 714 716 719 723 726 729 731 733 736 739 741 744 746 748 749 751 753 755 757 759 761 763 765 768 770 771 772 773 774 775 776 776 777 778 779 780 781 782 783 784 785 786 787 787 788 789 789 790 791 792 792 793 794 795 795 795 796 796 795 795 795 795 795 796 797
645 648 651 654 658 662 666 669 673 677 681 685 689 691 694 696 700 703 707 710 713 716 719 722 725 728 730 731 733 736 739 742 744 746 747 749 751 753 755 757 759 762 764 766 768 769 771 771 772 773 774 774 775 775 776 777 778 779 780 781 782 783 784 785 786 786 787 787 788 789 790 790 791 792 792 793 793 793 793 793 792 792 793 794 795
646 649 653 656 660 664 667 671 674 678 682 687 690 692 694 696 699 703 706 709 713 716 719 722 725 727 729 731 733 736 738 740 743 745 746 748 750 751 753 756 758 760 763 764 766 767 768 769 770 771 771 772 772 773 774 774 775 777 778 779 780 781 782 782 783 784 784 785 786 786 787 788 789 789 790 790 791 791 790 790 790 790 791 792 793
648 651 655 659 662 665 669 672 676 679 684 688 692 694 695 697 700 704 706 710 713 716 719 722 725 727 730 732 734 737 739 740 742 744 745 747 749 751 753 755 757 759 761 763 764 765 766 767 768 769 769 770 770 771 772 773 773 774 776 777 778 779 780 780 781 781 782 783 783 784 785 786 786 787 787 787 788 788 788 788 788 789 789 790 791
652 655 658 662 665 667 671 675 678 682 686 690 693 695 697 699 702 705 708 711 714 717 719 722 725 727 730 733 735 738 739 740 742 743 745 746 748 750 752 754 756 758 759 761 762 763 764 765 766 767 767 768 768 769 770 771 772 773 774 775 776 777 777 778 779 779 780 781 781 782 783 783 784 784 784 785 785 786 786 786 786 787 788 788 789
655 658 662 665 668 671 674 677 680 683 687 690 693 696 698 701 704 707 710 712 715 717 720 722 725 727 730 733 735 737 738 739 741 742 744 746 748 749 751 753 755 756 758 759 760 761 762 763 764 765 765 765 766 767 768 769 770 771 772 773 774 775 775 776 777 777 778 779 779 780 780 781 781 781 782 782 782 783 783 784 784 785 786 786 787
657 661 664 668 671 675 678 680 682 685 688 691 694 697 700 703 705 708 711 713 715 718 720 723 725 727 730 732 734 736 737 739 740 742 744 745 747 749 750 752 754 755 756 757 758 759 760 761 762 762 763 763 764 765 766 767 768 769 769 771 772 772 773 774 774 775 776 777 777 778 779 779 779 779 779 779 780 780 781 782 782 783 784 784 785
661 664 667 670 674 678 681 683 686 688 690 693 695 698 701 704 707 709 711 713 716 718 721 723 725 728 729 731 733 735 737 739 740 742 743 745 747 748 750 751 753 754 755 755 756 757 758 759 760 760 761 761 762 763 764 765 766 766 767 768 769 770 771 772 772 773 774 774 775 776 777 777 777 777 777 777 778 778 779 780 780 781 781 782 782
665 667 670 674 677 681 684 687 689 691 693 695 697 700 702 705 707 710 712 714 717 719 721 724 726 728 730 732 734 736 737 739 740 742 743 745 746 748 749 750 751 752 753 754 755 756 757 757 758 758 759 759 760 761 762 763 764 765 765 766 767 768 769 770 770 771 772 772 773 774 775 775 775 775 775 776 776 777 777 778 778 779 779 779 780
668 671 674 677 681 685 688 691 693 694 696 698 700 701 704 706 708 711 713 715 717 720 722 724 727 729 731 733 735 736 738 739 740 742 743 744 746 747 748 749 750 751 752 752 753 754 755 755 756 756 757 758 759 760 760 761 762 763 763 764 765 765 766 767 768 769 770 770 771 772 772 773 773 774 774 774 775 775 775 776 776 777 777 777 777
671 674 677 681 684 687 690 693 695 696 698 700 701 703 706 708 710 712 714 716 719 721 723 725 727 729 731 733 734 736 737 739 740 741 743 744 745 746 747 748 749 749 750 751 752 752 753 753 754 755 756 757 758 758 759 760 761 761 762 762 763 763 764 765 766 767 768 769 769 770 770 771 771 772 772 772 773 773 773 774 774 775 775 775 775
674 677 680 683 686 689 692 694 696 698 700 702 704 706 708 710 712 714 716 718 720 722 724 726 727 729 731 732 734 735 737 739 740 741 742 743 744 745 745 746 747 748 749 749 750 750 751 752 753 753 754 755 756 757 758 759 759 760 760 760 761 761 762 763 763 764 765 766 767 768 768 769 769 769 770 770 770 771 771 771 772 772 773 773 773
677 680 682 685 688 691 693 696 698 700 702 704 706 708 710 712 714 716 718 719 721 723 725 726 728 730 731 733 734 735 737 738 739 740 741 742 743 743 744 745 746 747 748 748 749 749 750 750 751 752 753 754 755 756 757 757 758 758 758 759 759 759 760 760 761 762 763 764 765 765 766 766 767 767 767 768 768 768 768 769 769 770 770 770 770
Wind_Speed
34 32 31 30 30 31 31 31 30 27 25 27 26 23 26 30 31 30 30 29 29 29 29 29 28 28 26 25 23 22 20 19 17 16 17 16 15 15 14 14 14 14 14 14 14 14 14 13 13 13 12 11 10 8 8 7 7 8 9 9 11 14 11 9 6 5 9 9 9 9 9 7 6 6 6 4 3 2 2 2 3 2 1 2 3
35 33 32 31 31 32 31 30 29 27 25 25 24 25 31 34 33 31 30 30 29 29 29 29 29 28 27 25 24 22 20 19 17 17 17 16 15 15 15 15 14 15 15 15 16 15 14 14 13 13 12 10 9 7 6 6 4 4 6 7 8 12 12 10 7 7 9 10 10 10 10 9 8 8 8 6 4 3 2 2 2 2 1 2 2
37 35 32 32 32 32 31 29 28 27 26 25 24 28 34 35 32 32 31 30 30 29 29 30 30 29 27 26 24 22 20 19 18 17 16 15 15 15 15 15 14 15 16 16 16 16 15 14 14 13 12 10 9 8 7 6 5 4 5 6 6 10 13 12 9 9 10 11 12 11 11 12 10 9 8 6 4 3 2 2 1 2 2 2 3
36 34 32 32 32 32 31 29 29 29 27 25 24 27 34 35 32 32 31 30 31 30 30 30 30 29 28 26 24 22 21 19 18 16 15 14 14 15 14 14 14 15 16 16 16 16 15 15 14 13 12 11 10 10 8 7 6 5 5 6 7 9 12 13 12 12 12 11 12 12 11 12 11 9 6 4 3 2 2 2 2 3 3 3 3
35 33 33 32 33 34 32 30 30 29 27 25 24 26 32 35 33 32 31 31 31 30 30 31 31 30 28 26 24 22 21 20 18 16 14 13 14 14 13 13 13 14 15 15 15 16 15 15 15 14 13 13 12 11 10 8 7 6 6 6 7 9 10 13 14 14 13 11 12 12 12 13 11 9 5 3 3 3 4 3 3 5 5 3 3
35 34 34 33 34 35 33 30 30 29 27 26 24 24 29 35 34 32 32 31 31 32 32 32 31 30 28 26 24 22 21 19 17 15 14 14 14 14 13 13 14 14 15 15 15 15 15 14 14 14 14 14 14 13 11 10 9 8 8 8 8 9 10 12 14 14 12 11 11 12 14 14 10 7 4 3 3 3 5 5 4 5 6 4 4
35 35 34 33 34 34 32 31 30 28 26 26 24 23 27 34 34 32 33 32 32 33 33 32 32 30 29 27 24 21 20 18 16 15 15 15 15 15 14 14 14 15 15 15 14 14 14 14 13 14 15 14 14 13 13 12 11 10 9 9 9 10 11 12 12 10 10 11 10 9 11 12 10 7 4 3 3 3 4 5 5 6 7 6 5
34 36 35 34 34 32 32 32 30 27 25 25 25 23 25 32 35 33 34 33 34 34 33 33 32 31 29 27 24 21 20 18 17 17 16 16 16 16 15 14 15 15 14 14 14 13 13 13 13 14 15 14 14 14 13 13 13 12 10 10 10 10 10 10 9 8 9 9 8 8 8 9 8 7 4 3 3 2 3 5 6 7 8 7 5
35 37 38 36 33 31 31 31 28 27 27 28 27 24 25 32 35 34 34 34 34 34 33 33 33 32 29 27 24 22 21 20 19 18 17 17 17 16 15 15 14 14 14 14 13 13 13 13 13 14 14 13 13 13 13 13 12 12 12 11 10 9 8 8 8 7 8 8 8 7 8 8 7 7 5 4 3 3 3 5 6 7 8 8 6
33 33 33 32 33 31 29 27 28 32 33 32 29 27 28 34 35 34 34 35 35 35 34 33 33 31 29 27 25 23 22 21 18 17 17 17 17 17 16 15 14 14 15 15 15 15 14 13 13 13 13 13 13 13 13 13 12 11 11 10 10 9 9 9 8 8 8 8 8 8 8 8 8 8 6 4 4 4 3 4 6 7 8 8 6
31 31 30 31 33 30 27 28 32 36 35 31 30 32 34 35 35 34 34 34 35 34 34 33 32 30 28 27 25 24 23 21 18 17 17 17 17 17 16 15 15 15 16 16 16 16 15 14 14 14 14 14 14 13 14 14 13 12 11 10 10 11 11 11 10 10 10 8 8 9 9 9 9 8 6 5 5 5 4 4 5 6 7 8 7
33 32 30 31 32 31 30 31 33 35 34 33 33 34 34 34 34 32 32 34 35 34 34 33 31 30 28 26 25 24 23 20 18 18 18 17 17 16 16 16 16 17 17 17 17 17 17 17 16 16 17 16 15 15 15 15 15 13 11 10 11 12 13 13 12 13 13 11 10 11 10 8 8 8 7 6 5 5 4 4 5 5 6 7 8
35 33 31 32 33 33 33 31 32 35 36 34 34 34 32 29 27 26 28 34 35 34 34 33 31 30 28 27 26 24 22 20 18 18 18 18 17 16 17 17 17 18 18 18 18 18 18 19 18 19 18 17 17 17 17 16 15 13 12 12 12 12 13 13 13 14 14 13 11 10 10 9 8 7 7 6 5 5 5 5 5 5 6 7 9
34 32 32 34 34 33 32 30 32 35 36 34 34 36 34 27 23 24 29 35 36 35 35 34 32 31 29 27 26 24 22 20 19 19 19 18 18 18 17 17 17 17 17 17 18 19 20 20 20 20 20 19 20 19 18 17 15 13 13 13 13 12 12 13 12 13 13 12 10 8 9 11 9 6 7 7 6 6 6 6 5 6 7 9 11
34 32 32 34 34 33 32 31 31 34 37 38 37 37 35 30 27 29 33 36 37 37 37 36 33 31 29 27 27 25 22 20 19 19 20 19 18 18 18 17 17 17 17 17 18 19 21 20 20 19 20 21 21 20 19 17 14 12 13 13 13 14 14 14 14 13 13 12 11 9 9 10 9 7 8 9 9 9 9 9 8 9 9 10 10
31 30 31 33 33 33 34 33 33 36 38 38 37 36 35 34 34 34 36 37 37 37 37 36 34 31 28 27 26 25 22 20 20 20 20 20 20 20 19 18 17 18 18 18 19 19 20 20 18 18 19 20 20 19 18 17 14 12 12 13 14 15 15 15 15 14 13 13 12 11 10 10 11 10 11 10 10 11 11 11 10 9 9 9 8
29 31 32 34 34 33 35 35 36 38 37 36 37 35 34 36 36 36 36 36 36 35 35 35 33 30 28 27 26 25 23 21 21 21 20 21 21 21 20 18 18 19 18 18 18 19 19 19 18 18 19 20 19 18 17 16 14 13 14 15 16 16 16 15 14 13 12 12 12 12 12 11 11 11 12 12 12 12 12 11 9 7 7 8 7
29 31 33 35 35 36 38 38 37 38 37 36 35 31 32 36 37 37 38 36 34 33 34 35 34 30 28 26 25 25 24 23 22 22 22 22 23 22 21 19 19 20 18 18 19 18 18 19 19 18 19 19 19 18 16 14 14 14 16 17 17 17 16 15 14 13 12 12 12 12 12 12 11 12 13 13 14 13 13 11 8 6 8 9 8
30 33 35 35 36 36 37 37 37 37 37 37 33 28 32 39 39 37 37 35 33 33 34 35 36 33 30 27 25 25 24 24 23 23 23 23 23 23 22 20 19 20 18 18 20 20 19 19 19 20 20 19 19 18 15 13 13 15 16 17 17 18 17 15 14 13 13 12 13 13 12 12 12 13 13 14 15 15 15 14 10 8 9 9 9
33 35 35 34 35 36 36 36 38 39 39 39 35 31 34 39 39 38 37 35 31 32 34 35 36 34 31 28 27 26 25 24 24 23 23 24 24 24 24 21 20 20 19 19 21 22 21 20 20 21 21 20 20 18 15 12 12 14 17 19 20 19 17 14 13 13 13 13 14 14 13 13 13 13 13 14 15 15 15 14 13 11 10 10 9
34 34 34 33 33 35 36 36 37 39 39 37 35 35 37 38 38 37 36 32 29 30 34 36 36 34 33 31 29 27 25 24 24 24 24 24 24 25 25 23 21 21 20 20 21 21 21 21 21 21 20 20 21 19 15 12 11 13 16 19 19 17 15 13 12 10 10 12 14 14 14 14 13 12 12 13 14 14 13 13 12 13 12 11 10
31 31 31 33 33 34 35 36 36 37 37 35 35 36 35 36 38 36 31 29 29 31 33 33 32 32 33 32 31 29 26 24 24 24 24 24 25 25 25 23 22 21 20 20 20 20 20 20 19 19 19 20 21 19 16 13 12 13 15 17 17 16 15 14 12 11 11 12 12 12 13 13 12 12 12 13 13 13 13 12 13 13 13 13 12
28 29 31 33 34 34 35 37 38 38 37 38 37 32 28 32 35 30 25 25 28 30 30 29 26 26 29 30 28 27 27 25 23 24 24 25 26 25 23 22 21 21 20 19 19 19 18 17 17 17 17 19 20 19 16 14 14 14 14 15 16 16 16 15 15 15 14 13 12 12 12 12 12 12 11 11 12 12 13 13 13 13 13 14 14
27 27 29 31 33 36 37 39 39 39 38 39 36 30 27 30 29 23 21 24 27 28 27 25 21 19 22 24 23 23 24 24 24 24 24 25 26 25 22 22 22 21 20 18 16 15 15 15 15 15 16 17 18 18 17 16 15 15 15 15 15 16 16 17 17 16 15 14 13 12 12 11 11 10 10 10 11 14 15 15 14 14 14 15 15
25 24 24 25 29 33 35 36 37 37 35 35 36 33 30 27 24 21 20 23 26 25 23 21 20 20 22 25 25 25 26 25 25 25 24 24 24 23 21 22 23 22 20 18 14 13 13 14 15 16 15 16 17 18 18 17 15 15 16 17 17 17 18 18 17 16 15 14 14 14 13 12 11 10 10 11 12 14 15 15 15 15 16 16 17
31 32 29 27 26 24 23 26 28 29 30 32 33 31 26 22 21 21 20 22 25 24 21 21 21 20 21 25 29 29 28 27 27 26 25 24 24 23 23 24 25 23 21 19 16 14 14 15 16 17 17 17 16 17 19 18 16 15 17 19 20 21 21 20 19 18 17 17 17 16 13 11 11 12 11 11 12 12 13 15 15 14 14 14 15
31 34 33 31 30 27 27 30 30 28 29 31 28 24 23 24 24 24 24 26 25 22 21 22 21 20 21 24 28 28 26 27 28 28 27 27 26 26 26 27 27 25 23 22 21 19 18 17 17 17 17 16 14 14 16 18 18 16 17 19 22 24 24 23 22 20 20 19 17 15 12 12 13 13 11 11 12 11 13 15 15 13 11 11 11
31 33 34 36 37 37 36 38 36 31 31 32 29 25 26 26 26 28 33 34 30 26 26 25 23 25 28 27 24 23 23 27 30 30 30 29 28 27 28 28 29 28 27 26 24 22 20 18 17 17 17 15 14 15 17 19 19 18 18 18 21 23 24 24 23 23 23 20 16 13 13 14 14 12 11 12 12 11 13 15 15 13 11 10 10
33 35 37 36 37 38 37 37 36 33 31 31 30 28 28 28 29 34 38 40 38 36 35 31 28 31 33 30 26 23 23 28 31 30 30 30 29 29 28 28 28 29 29 28 26 23 20 17 17 18 17 16 16 17 18 19 20 20 19 19 20 21 22 23 23 23 22 20 17 15 14 13 12 11 11 11 11 10 13 14 13 12 12 11 11
32 35 38 36 36 38 36 36 36 35 32 31 28 25 25 27 30 33 35 35 36 37 36 33 32 34 34 32 30 27 25 27 27 26 27 28 26 26 26 26 27 28 29 29 26 22 19 17 16 18 18 17 18 18 18 19 19 18 18 20 20 20 20 21 21 21 20 20 19 16 14 13 12 10 10 10 10 10 12 13 12 12 11 11 11
25 29 32 35 39 41 37 34 35 34 34 33 31 27 23 20 22 26 29 30 30 30 31 31 31 33 34 32 30 26 21 17 16 18 22 23 22 23 24 25 26 27 29 28 25 21 19 17 15 16 16 16 18 18 17 17 17 15 14 15 18 20 20 20 20 19 20 21 21 18 16 16 15 12 11 11 12 10 10 12 12 12 12 10 10
21 22 21 25 32 37 36 34 32 30 30 31 32 29 26 22 19 18 22 25 24 25 26 26 25 28 30 29 27 24 19 14 13 15 17 19 20 21 22 23 25 26 27 27 22 19 20 18 15 15 16 16 16 16 14 13 14 14 13 13 15 19 20 19 18 18 18 19 20 20 20 19 18 16 13 14 14 12 10 11 12 12 11 10 10
22 20 17 17 21 25 29 31 30 29 29 29 29 29 28 26 24 21 19 19 18 18 19 19 18 21 24 23 21 18 17 18 17 16 17 18 19 19 20 22 23 24 25 25 20 17 18 17 14 15 16 15 14 14 14 13 12 12 12 13 14 16 18 17 17 17 16 17 17 19 20 19 17 16 15 16 16 14 12 12 12 11 10 9 10
25 24 24 24 20 19 23 27 29 30 30 29 29 28 27 29 29 28 25 22 18 17 16 15 14 16 19 19 17 15 15 18 18 17 18 19 20 21 22 22 21 21 23 23 20 18 19 19 17 16 14 13 13 14 15 15 14 13 13 14 14 14 16 18 19 18 16 16 17 18 19 18 16 16 17 16 15 14 14 14 12 10 9 9 9
26 29 32 32 27 22 24 28 30 32 32 31 30 29 28 30 31 31 29 27 23 21 20 18 17 16 17 17 17 15 14 16 16 17 20 21 21 23 24 22 21 20 20 20 19 19 21 22 19 16 14 14 14 14 14 14 15 16 17 18 18 18 18 20 21 20 19 19 19 19 19 18 17 17 17 15 12 12 13 13 13 11 9 9 9
25 26 28 29 28 27 28 28 29 31 31 29 27 26 26 28 28 27 27 26 25 23 22 21 19 17 16 17 17 15 14 16 17 19 21 23 24 25 25 23 21 20 18 17 17 18 19 19 18 16 16 15 14 14 14 14 16 17 18 18 18 18 18 19 19 19 19 20 21 20 19 19 18 17 16 13 11 11 12 12 13 13 11 10 9
25 24 24 25 26 27 27 26 27 29 29 28 27 27 25 25 26 25 25 24 24 24 25 25 22 19 18 18 18 18 17 17 18 19 20 22 23 23 23 23 22 19 18 19 20 19 18 18 17 18 17 16 14 13 15 15 16 16 17 16 15 15 16 17 17 17 17 18 19 19 19 19 18 16 14 12 11 11 12 13 13 13 13 13 10
26 27 27 27 27 28 27 26 26 28 29 29 29 30 28 25 24 25 24 23 24 26 28 28 25 23 23 22 21 21 22 21 20 20 20 21 22 22 21 22 22 20 20 21 21 20 19 18 18 17 16 15 13 13 12 12 13 13 14 14 14 14 15 15 15 15 16 16 16 17 18 18 17 16 14 13 11 11 12 14 13 11 11 13 11
29 31 31 30 29 29 29 29 27 26 27 27 27 29 29 25 23 23 24 24 24 26 27 25 20 22 27 28 25 24 25 24 24 24 24 23 23 22 20 20 20 19 19 19 19 19 19 17 16 15 15 14 12 11 11 11 11 11 12 12 13 13 13 13 13 14 15 15 15 16 17 16 15 14 14 13 11 11 12 14 15 12 10 11 10
31 31 31 32 31 30 30 31 28 26 25 24 24 26 26 25 24 23 24 23 22 22 22 20 17 22 29 31 28 27 27 26 26 26 25 24 22 21 20 20 19 19 18 18 18 18 17 16 15 14 13 13 12 11 10 10 10 11 11 12 12 11 12 12 12 12 13 14 13 13 14 15 14 13 13 12 11 12 13 14 14 12 11 10 9
31 30 30 31 32 31 31 30 28 27 26 24 24 24 25 26 25 23 23 23 22 20 19 17 18 23 28 28 26 27 28 27 26 25 24 23 22 21 20 19 19 18 17 17 17 16 15 15 14 12 12 12 12 11 11 10 9 10 10 11 11 11 11 12 13 13 12 13 13 12 13 13 12 12 12 12 12 13 14 15 12 10 11 11 9
29 29 29 29 30 30 29 27 27 28 26 24 24 24 24 25 24 23 23 23 22 22 20 17 18 21 23 22 23 24 24 23 23 22 21 21 20 19 19 18 17 17 16 16 15 14 13 13 12 11 10 10 11 11 11 10 9 10 10 11 12 12 11 11 12 13 13 12 12 12 12 11 11 12 13 13 13 13 14 14 12 10 11 10 10
28 28 28 27 27 27 27 27 27 27 25 24 24 24 24 24 23 23 23 23 23 22 20 17 17 19 19 19 20 20 17 17 19 20 19 19 19 18 17 16 16 16 15 14 13 12 11 11 11 11 10 10 11 11 11 10 10 10 11 11 12 13 13 11 11 12 12 11 11 12 12 12 13 14 15 15 15 14 13 13 13 12 10 10 10
29 28 26 25 25 25 24 25 26 26 25 25 25 25 25 24 22 20 21 22 22 22 20 19 19 20 19 19 19 17 14 13 16 17 17 17 16 16 15 15 15 14 14 12 12 11 11 11 11 11 12 12 12 12 12 11 12 12 12 12 12 13 14 14 13 12 12 11 11 11 11 11 12 13 15 16 15 14 14 14 13 12 10 9 10
27 26 25 24 23 22 21 23 26 28 28 27 27 25 24 23 21 20 20 21 21 20 20 20 21 21 20 19 19 17 14 13 14 15 15 15 15 14 14 13 13 12 11 11 11 11 11 11 12 12 12 12 13 13 13 14 14 14 13 13 13 13 13 14 13 12 12 11 11 10 9 9 9 11 13 14 14 14 13 12 11 11 12 12 12
27 26 25 24 24 23 23 24 27 28 28 28 27 25 23 23 23 23 23 22 22 21 20 19 19 19 19 18 18 17 16 15 15 14 14 14 13 13 12 11 11 11 11 11 11 11 11 11 11 11 12 12 13 14 14 15 15 15 15 15 14 14 13 12 12 13 12 12 12 10 9 7 7 7 8 10 11 12 12 11 11 12 13 14 14
28 28 27 26 26 25 24 25 26 27 28 27 26 25 24 24 24 24 23 22 21 21 20 19 18 17 17 16 16 15 15 14 14 13 13 12 12 11 11 10 11 11 11 12 12 12 12 12 11 10 11 12 13 13 14 15 15 16 16 16 16 15 14 13 14 13 13 13 13 11 9 7 6 6 7 8 9 11 12 13 13 13 13 14 14
30 30 29 28 28 27 26 25 26 25 25 25 25 24 24 23 23 22 21 20 19 18 17 17 16 15 15 14 14 13 13 12 12 12 12 12 11 11 11 11 12 12 12 12 13 13 12 11 11 11 11 11 12 12 13 14 15 15 16 16 17 16 16 15 15 14 14 14 14 12 11 10 9 8 8 9 10 11 12 13 13 13 13 13 13
31 31 30 30 29 27 26 26 25 24 23 23 22 21 21 20 19 19 18 17 16 15 14 13 13 13 12 12 12 12 12 11 11 11 11 12 12 12 11 11 12 12 12 12 13 13 13 12 12 12 12 12 12 12 12 13 13 14 15 15 16 16 16 16 17 16 16 15 15 14 13 13 12 12 12 12 12 13 14 14 14 13 13 13 13
31 31 30 30 28 26 25 24 23 23 22 21 20 19 18 17 16 15 14 13 13 12 12 12 12 12 12 12 12 12 11 11 11 11 12 12 13 12 11 11 11 11 11 12 12 13 13 14 14 13 13 13 13 12 13 13 13 13 14 14 14 15 16 17 18 18 17 17 17 16 16 15 15 15 15 15 15 15 16 16 17 16 15 14 15
30 29 29 28 26 24 23 22 22 21 21 20 19 18 16 14 13 13 12 11 11 12 12 12 11 12 12 12 12 12 11 11 12 12 11 11 12 11 11 10 10 9 9 9 9 11 12 14 14 14 14 14 14 13 13 13 13 13 13 13 13 14 15 16 17 18 18 19 19 18 18 18 18 18 17 17 17 18 18 18 18 18 17 15 15
Wind_Direction
190 191 191 191 188 188 190 192 194 194 194 197 196 196 202 207 211 211 210 210 210 210 209 208 208 206 206 208 210 214 218 220 219 217 219 225 231 231 224 218 216 218 217 214 209 205 202 202 204 204 205 207 212 216 217 220 218 218 224 222 223 224 216 219 226 162 156 176 170 170 186 188 196 212 208 211 232 260 289 300 313 316 290 276 309
191 191 190 190 189 189 189 190 192 192 192 194 194 199 206 209 211 210 209 209 210 209 209 208 208 207 207 209 212 216 220 222 221 218 218 225 228 225 220 216 214 214 211 208 205 202 200 202 202 201 202 203 203 201 196 192 178 184 206 206 214 223 215 208 206 170 161 176 177 180 193 196 204 217 214 209 216 230 250 273 306 322 289 273 299
193 191 189 190 189 188 188 188 190 191 191 193 193 200 205 207 209 210 208 208 209 209 209 209 208 207 208 211 213 217 222 223 221 220 222 227 226 221 218 216 214 213 210 207 205 202 199 200 201 200 197 193 191 188 180 171 154 148 176 186 195 213 210 201 193 175 166 173 182 187 197 202 206 212 214 219 228 244 260 257 300 348 332 303 295
191 189 189 189 188 187 187 186 188 190 192 192 192 197 203 205 207 208 208 208 207 208 209 209 207 206 207 210 214 219 223 223 221 221 225 228 225 221 218 216 215 215 214 211 208 205 201 200 201 199 194 189 185 183 176 164 150 144 158 171 183 200 202 197 195 187 174 173 186 193 198 203 204 203 210 232 254 296 327 307 331 7 354 321 301
189 189 188 186 187 189 187 185 187 189 190 191 190 193 200 203 205 206 206 206 206 206 207 207 206 206 207 210 214 219 223 222 220 220 224 224 221 221 220 218 216 216 217 216 212 209 206 204 203 199 193 189 184 179 176 170 161 160 166 172 180 189 192 194 198 196 184 179 186 194 199 200 200 200 208 248 283 324 342 326 337 9 13 347 307
189 189 186 183 186 189 187 186 187 187 188 190 190 190 196 201 203 204 205 205 205 205 205 205 205 205 207 210 213 218 222 222 220 220 221 217 213 214 216 216 214 214 214 214 213 212 210 209 208 203 197 193 189 183 182 182 179 178 181 181 180 182 188 194 196 194 190 185 183 191 198 199 198 201 213 263 295 321 336 326 330 359 14 7 330
189 189 186 184 187 188 188 189 187 184 186 189 189 187 193 199 201 203 205 205 204 204 204 204 205 205 207 209 211 216 220 219 216 218 218 212 206 207 209 210 210 210 209 209 211 212 213 214 213 207 201 199 196 192 191 193 192 191 192 191 187 187 192 195 193 188 186 185 184 187 192 196 201 207 224 275 286 308 334 332 335 349 356 358 346
188 189 187 186 187 188 190 190 185 182 183 186 188 187 190 197 200 203 205 204 205 204 203 204 204 203 205 207 210 214 216 213 212 214 214 210 205 205 206 207 207 207 207 208 210 212 214 216 215 210 207 205 203 202 204 203 199 198 202 204 202 197 194 193 189 185 183 183 185 185 186 193 203 212 233 267 272 291 329 333 335 339 340 342 342
187 190 189 187 187 187 188 187 183 180 182 186 188 186 189 195 199 203 205 204 205 205 203 203 202 201 203 206 209 211 211 209 210 212 211 207 205 206 207 207 208 207 206 207 208 210 212 213 211 209 208 208 208 212 216 215 210 209 212 214 211 205 198 195 190 185 184 186 187 185 188 197 204 211 230 249 258 277 310 325 327 328 331 334 335
185 187 188 188 188 186 183 181 181 181 183 186 186 186 190 195 198 202 204 204 205 204 202 202 201 201 202 205 207 208 207 208 210 211 211 208 206 206 207 207 209 209 207 206 206 207 209 209 207 206 207 209 211 212 218 222 223 228 233 230 225 217 204 199 198 194 191 193 192 189 194 205 206 210 226 239 243 261 287 308 318 323 329 333 333
184 185 186 188 187 182 177 178 181 181 182 183 183 187 191 194 197 200 201 203 204 203 202 201 200 201 203 205 206 206 206 208 208 208 209 209 207 206 206 207 207 207 207 207 205 205 204 203 202 202 206 210 209 210 217 223 226 236 244 245 243 233 216 207 204 200 197 197 196 195 203 213 209 207 224 236 235 249 268 278 302 320 325 329 328
183 186 185 184 181 177 176 179 179 179 180 181 183 187 190 191 194 196 197 201 201 200 201 200 199 201 203 205 206 205 206 207 206 206 206 206 206 205 206 207 206 204 205 205 205 205 202 199 200 204 207 210 210 212 219 223 227 236 242 243 246 243 232 225 217 208 204 201 201 205 214 219 209 207 223 232 232 245 259 262 281 304 311 317 316
182 185 183 179 177 177 177 178 177 178 180 181 182 184 185 186 189 190 194 198 198 197 198 198 198 200 202 204 205 205 207 206 205 205 205 204 203 203 206 207 206 204 204 204 205 206 203 201 202 206 209 212 214 216 219 220 225 236 242 241 243 242 236 231 226 218 212 209 210 215 223 222 210 210 226 233 235 245 261 273 280 292 303 308 308
180 181 178 177 178 178 178 178 177 178 178 178 180 184 184 184 185 187 193 195 194 195 196 195 196 199 201 203 203 204 206 205 204 204 204 204 202 202 205 206 205 206 207 206 207 208 206 205 206 209 211 213 215 217 216 216 224 236 238 240 241 233 225 221 218 215 214 215 218 226 231 226 216 215 231 236 238 241 256 277 283 290 297 298 302
179 178 177 179 179 178 177 178 177 176 177 179 181 183 184 185 188 191 193 193 192 194 195 194 195 197 200 202 202 203 205 203 202 203 203 202 200 201 205 205 204 207 209 209 210 209 209 209 211 215 215 214 218 220 216 217 228 235 234 236 233 220 210 209 209 210 213 218 224 232 236 227 219 223 236 241 244 242 246 259 272 282 288 289 297
178 177 178 180 180 178 178 178 175 173 175 179 181 181 183 186 189 190 190 190 192 193 193 193 194 195 198 201 201 202 204 201 201 202 201 200 198 199 203 204 205 208 209 209 210 210 211 211 214 221 221 219 223 225 221 224 233 233 227 226 220 211 207 208 211 215 220 226 233 238 237 229 227 235 241 244 252 252 250 260 270 276 280 286 294
178 178 180 182 182 180 178 177 174 173 174 178 180 181 183 185 186 186 186 188 190 190 190 193 194 193 195 197 198 201 202 201 200 200 199 197 195 198 201 201 203 207 208 209 210 210 212 213 217 226 226 225 229 230 228 234 238 230 223 219 214 211 213 215 219 225 230 236 243 245 241 235 236 243 246 247 255 258 255 261 269 270 277 288 297
179 179 182 183 182 180 179 178 175 173 175 179 181 180 181 183 186 186 186 187 188 189 190 191 193 193 191 191 194 200 202 200 198 198 198 196 196 197 198 197 199 204 206 208 209 211 214 217 222 228 228 230 233 232 233 242 242 232 225 218 215 217 222 226 232 238 242 245 249 249 245 240 242 250 252 249 253 256 252 253 266 277 283 293 302
182 182 183 183 181 179 179 179 177 175 177 180 181 180 180 183 186 187 187 187 187 190 192 191 192 194 192 188 193 201 202 199 197 197 197 195 196 198 197 194 197 200 202 205 208 211 216 222 226 227 229 234 234 231 238 249 244 236 226 216 216 225 230 235 242 247 250 251 251 251 246 244 248 256 256 250 250 254 251 248 256 267 278 292 301
184 183 182 180 179 178 179 179 178 177 179 182 182 181 180 182 185 186 188 188 188 189 191 191 193 196 194 191 196 202 203 199 196 197 197 196 197 198 197 195 196 198 200 204 208 212 217 223 227 227 228 232 231 232 243 250 244 238 227 218 222 229 234 242 250 253 256 257 254 251 248 248 255 259 259 255 253 254 251 248 252 257 264 280 290
184 182 179 177 177 178 179 179 177 177 180 182 182 182 182 183 185 186 187 187 186 187 189 191 194 196 195 195 199 202 204 202 197 196 197 198 198 199 199 198 198 199 201 205 210 214 219 224 227 228 229 230 229 233 243 247 242 239 230 225 229 233 240 251 254 251 259 262 257 252 249 252 259 261 260 258 255 253 249 248 254 256 256 265 276
182 179 175 174 175 176 177 178 176 176 180 182 182 182 182 184 186 187 186 185 186 187 188 191 193 193 195 197 199 201 204 203 198 196 196 199 201 202 202 203 203 202 201 204 209 215 220 225 229 231 231 229 230 235 242 244 241 239 234 231 235 240 247 253 250 247 258 264 258 251 250 252 257 260 259 254 251 250 247 248 257 260 257 260 266
178 175 173 173 175 177 177 176 175 176 181 184 182 179 179 184 186 185 181 181 183 185 187 188 187 187 192 194 195 199 202 201 198 197 197 200 203 204 205 206 206 205 204 206 211 215 219 225 229 233 233 231 232 235 239 240 239 238 235 232 237 243 248 252 252 253 259 262 257 252 251 252 257 263 262 253 244 243 244 248 256 262 264 267 268
170 169 172 174 174 176 178 177 176 178 182 183 180 176 178 182 183 182 178 176 177 180 184 185 182 180 184 183 184 194 202 200 198 199 200 202 203 204 207 210 210 210 212 215 218 219 220 224 228 232 234 235 236 236 236 237 239 239 235 232 236 242 245 249 254 255 256 256 253 250 251 255 262 266 262 250 242 240 242 246 253 259 265 270 273
152 156 166 173 176 178 179 176 175 180 183 179 175 176 178 178 177 178 176 174 175 178 181 183 182 180 178 175 180 193 202 201 199 200 203 204 202 202 207 212 213 213 216 220 222 219 219 225 230 232 235 237 237 233 232 234 239 241 238 234 234 239 243 246 249 250 248 246 246 250 256 261 267 271 266 255 247 244 245 249 254 258 264 271 274
159 164 170 174 175 174 169 166 172 181 182 177 175 177 177 173 173 174 174 174 177 179 179 178 178 177 176 178 185 192 197 197 198 200 201 201 202 203 207 212 214 216 218 220 221 221 225 232 236 235 236 238 237 233 230 230 235 241 239 234 234 237 241 244 244 245 245 246 249 255 259 262 268 274 270 261 254 249 249 253 257 261 267 273 275
165 168 170 169 169 170 169 171 177 182 181 177 176 176 176 176 175 174 177 178 178 177 177 176 173 173 175 181 187 191 192 193 196 199 199 197 200 204 206 209 211 214 216 219 221 225 230 235 236 235 236 237 236 235 231 228 232 240 240 235 234 236 241 244 246 248 251 252 254 256 258 262 269 272 268 260 257 252 248 252 257 263 268 269 266
163 166 168 169 172 175 177 177 178 178 179 180 179 175 176 178 177 178 183 183 179 179 181 179 178 180 180 180 182 184 189 194 197 198 198 198 200 203 205 207 210 213 215 217 220 225 229 230 229 228 230 230 227 226 227 227 232 239 241 238 237 239 243 246 248 251 252 252 251 252 256 262 265 264 261 260 257 253 250 253 259 262 261 257 255
166 167 169 172 175 176 176 176 176 175 176 179 180 179 180 182 182 185 189 190 189 189 187 185 185 186 185 185 183 181 188 200 204 202 200 200 202 203 203 205 209 213 217 219 218 218 218 217 217 218 220 220 219 220 223 227 232 237 240 241 240 240 243 245 245 248 249 248 247 249 253 257 257 256 260 263 262 261 261 259 259 258 254 248 248
172 172 172 173 174 175 174 174 175 174 172 172 174 176 181 187 189 187 187 190 193 195 194 193 195 193 191 194 196 196 200 206 207 204 203 204 206 207 207 207 209 212 216 216 214 211 207 202 206 212 213 213 217 222 226 228 230 232 235 238 239 238 241 243 244 245 246 247 248 248 247 250 252 253 260 266 267 268 266 263 258 253 249 245 246
177 179 179 176 173 172 172 173 172 171 169 169 168 166 165 172 180 184 186 187 190 192 194 197 200 199 198 198 198 201 206 206 203 204 206 205 207 208 209 210 211 212 214 210 205 203 203 200 201 206 209 213 220 226 229 228 226 227 227 231 236 239 242 245 245 245 246 248 250 247 244 247 251 254 260 265 266 262 257 257 259 255 248 243 245
182 184 187 183 174 169 167 168 168 166 164 165 165 162 154 146 148 165 181 186 187 189 192 196 199 200 202 201 198 196 195 190 189 195 197 198 201 204 205 207 209 212 213 208 202 201 204 204 205 207 210 215 220 222 222 221 224 229 228 226 233 240 244 246 247 246 246 249 250 249 247 247 250 255 261 262 261 258 250 254 263 259 248 242 243
182 180 180 181 176 167 162 160 161 161 160 161 163 162 157 150 143 142 153 168 177 182 187 193 196 197 199 201 200 197 192 187 185 182 179 183 189 193 197 203 207 208 206 201 199 201 203 204 207 211 214 217 218 220 224 225 226 228 228 229 235 241 245 248 250 249 247 248 250 249 247 244 245 252 258 258 257 259 258 261 263 256 243 241 241
179 178 177 175 172 165 158 156 156 158 160 162 165 164 162 160 154 146 143 147 152 158 165 173 180 185 188 189 189 191 190 186 182 176 172 174 179 186 192 195 199 204 205 203 203 205 206 209 213 214 216 219 221 225 230 232 231 230 232 236 240 240 243 249 252 252 249 249 249 246 241 238 239 247 254 256 257 262 264 263 259 250 239 234 233
174 176 176 172 166 160 158 158 158 159 161 165 168 167 164 162 159 155 152 151 148 146 150 156 163 171 176 176 175 179 181 177 171 169 169 171 177 184 186 183 184 192 201 206 208 210 213 215 216 216 219 224 227 229 229 229 233 237 241 245 247 247 250 253 254 252 251 252 252 246 238 235 238 246 252 254 257 262 264 261 257 252 243 230 225
164 166 165 161 157 155 158 160 161 161 162 164 163 160 159 160 158 154 153 152 147 143 143 148 155 163 168 168 168 170 169 165 163 164 168 172 178 181 180 178 180 186 192 199 205 208 213 216 218 220 225 227 229 232 234 235 240 244 245 247 250 250 253 254 253 252 252 254 254 251 243 239 244 250 254 254 256 262 266 266 263 258 246 229 222
151 146 144 145 147 148 151 155 158 158 158 157 153 151 153 157 155 150 147 147 145 142 142 145 149 154 160 163 165 165 163 161 161 164 170 175 180 182 183 184 186 187 192 198 202 204 208 214 218 222 228 229 228 234 240 245 249 249 247 247 247 246 248 250 251 250 250 252 255 254 249 247 251 256 256 251 251 260 270 275 276 265 244 229 224
141 140 143 146 146 145 146 148 150 151 151 150 150 151 153 154 151 147 145 146 146 144 145 148 151 154 157 161 165 165 162 160 161 165 171 177 181 184 190 193 193 195 198 202 205 206 210 215 219 223 227 230 230 233 237 240 243 245 244 244 246 247 248 250 249 248 247 247 249 250 251 251 253 255 253 248 247 258 271 279 282 267 237 225 226
139 144 148 148 146 144 145 144 143 143 144 145 148 150 150 147 144 143 143 145 146 148 150 151 154 159 161 162 164 165 163 164 168 172 174 178 182 185 190 195 198 200 202 205 208 210 213 217 222 225 227 228 228 228 229 231 234 237 238 239 242 246 246 243 241 240 241 241 241 243 245 245 244 245 245 243 249 260 270 279 282 267 232 218 222
137 141 144 144 142 141 142 142 141 141 142 144 147 147 145 144 144 145 146 147 148 152 155 154 157 165 168 168 169 170 170 172 177 179 178 179 182 185 188 193 196 199 201 204 208 212 214 216 219 222 225 226 226 223 222 224 227 231 234 236 237 238 237 234 232 231 234 236 237 239 241 240 239 239 239 240 250 260 267 277 280 260 230 220 223
134 134 137 140 140 139 138 138 140 142 143 145 147 147 146 147 148 149 151 151 152 155 156 157 163 171 174 175 177 179 180 181 182 183 183 184 186 188 192 195 197 199 203 207 211 213 215 216 217 221 225 227 225 220 216 215 217 220 226 229 229 229 230 231 231 230 231 235 236 236 237 235 231 229 233 241 252 262 267 271 267 241 221 223 230
129 129 131 133 135 135 134 133 138 142 143 145 147 147 147 147 148 150 152 154 156 157 157 157 165 172 177 180 182 183 185 186 186 187 189 191 194 196 198 201 203 206 210 213 214 214 215 216 218 221 225 226 224 219 214 212 211 211 216 222 224 226 227 229 231 231 231 233 234 232 229 229 230 236 244 250 253 259 264 260 246 225 216 222 232
126 127 128 130 132 133 132 133 136 139 139 141 143 144 144 144 145 148 150 152 155 157 154 153 159 166 171 178 183 183 184 188 191 193 195 198 201 203 205 209 211 212 213 213 211 210 212 215 218 222 222 221 219 216 214 213 211 210 213 218 222 224 224 224 229 231 229 229 232 232 233 238 244 248 252 252 251 253 254 244 228 218 220 228 236
126 126 126 126 126 128 130 133 136 137 138 139 139 140 142 142 142 144 147 149 152 154 151 149 153 157 161 169 178 181 182 186 190 194 197 200 202 204 208 210 210 208 208 207 206 207 211 214 218 220 220 218 216 214 212 213 212 213 215 218 222 225 225 223 225 227 227 228 233 237 238 242 245 245 246 247 245 240 235 228 221 221 229 236 240
123 123 122 122 123 125 129 133 135 135 136 135 135 136 139 140 140 141 143 144 145 145 145 146 151 155 158 164 171 176 178 180 182 185 188 191 193 196 199 200 199 200 200 201 203 206 210 213 217 219 219 218 218 216 214 215 216 216 218 220 223 226 227 226 224 224 225 226 228 230 231 233 235 236 236 236 233 227 222 223 228 236 243 247 249
126 125 124 123 125 128 130 131 133 133 133 132 132 133 134 135 137 138 139 139 139 140 143 146 151 156 160 163 168 173 177 179 180 180 182 183 185 187 188 188 189 191 193 195 198 201 203 207 212 215 215 216 217 217 217 218 219 220 221 223 224 225 227 225 221 219 218 216 214 215 222 229 232 229 223 219 219 221 223 229 237 242 246 250 253
130 128 127 127 128 129 130 131 131 132 133 133 133 133 133 134 135 135 135 135 136 139 142 146 151 157 162 165 169 173 177 179 179 178 178 179 180 180 181 182 183 186 189 191 193 194 196 200 205 207 209 212 215 217 218 220 222 224 226 227 227 225 223 220 217 215 214 212 208 211 221 232 237 237 229 220 219 225 231 235 239 242 246 250 251
133 131 130 130 130 130 131 132 133 133 133 133 133 133 134 134 136 137 138 140 142 145 148 151 154 159 162 164 166 169 172 174 175 175 176 176 175 175 177 179 182 185 189 192 194 195 197 200 202 204 207 209 210 213 216 218 221 225 227 229 230 228 223 219 217 215 214 213 213 218 229 237 240 242 241 233 229 232 235 237 240 243 248 252 252
132 130 130 131 132 133 134 134 134 133 133 132 131 132 133 134 136 138 141 145 149 153 155 156 158 160 162 164 165 167 169 170 171 172 173 172 172 174 177 181 185 189 192 194 197 199 201 204 205 205 206 206 205 207 210 214 218 224 228 232 235 233 228 223 221 218 217 217 220 225 234 240 243 245 246 243 241 241 241 243 245 248 251 255 258
128 129 131 132 132 133 135 134 133 133 133 131 131 133 134 134 135 137 139 142 146 149 153 157 160 162 162 164 166 167 168 170 171 173 175 175 175 177 181 185 188 192 195 198 202 205 207 208 207 206 204 204 204 206 209 213 218 223 228 233 235 234 230 228 226 223 221 222 224 228 235 240 243 245 248 250 251 251 250 250 252 254 256 259 262
128 129 130 130 131 132 133 133 133 135 135 134 134 135 135 134 134 137 139 140 142 145 149 153 156 158 159 159 160 161 165 170 174 176 179 181 181 181 181 180 180 182 188 196 204 212 215 215 211 207 205 205 206 207 209 213 218 222 226 230 232 233 232 231 229 226 224 224 226 230 235 238 241 245 248 252 255 257 257 257 258 260 261 260 260